Mosby, MO

1:02 PM CST on December 14, 2019 (GMT -0600)
Clay County Regional

Weather History for KGPH - September, 2019

Change the Weather History Date:

Wednesday, September 18, 2019

  Actual Average (WUND) Record (WUND)
Temperature  
Mean Temperature 80 °F -  
Max Temperature 91 °F - - (-1)
Min Temperature 68 °F - - (-1)
Cooling Degree Days 14    
Growing Degree Days 30 (Base 50)    
Moisture  
Dew Point 67 °F    
Average Humidity 73    
Maximum Humidity 94    
Minimum Humidity 43    
Precipitation  
Precipitation 0.00 in - - ()
Sea Level Pressure  
Sea Level Pressure 29.98 in    
Wind  
Wind Speed 0 mph ()    
Max Wind Speed 9 mph    
Max Gust Speed -    
Visibility 9.9 miles    
Events      
Averages and records for this station are not official NWS values.
T = Trace of Precipitation, MM = Missing Value Source: Averaged Metar Reports

Daily Weather History Graph

Daily Weather History Graph

Search for Another Location

Airport or City:

Astronomy

Sep. 18, 2019 Rise Set
Actual Time 7:01 AM CDT 7:21 PM CDT
Civil Twilight 6:34 AM CDT 7:47 PM CDT
Nautical Twilight 6:02 AM CDT 8:19 PM CDT
Astronomical Twilight 5:30 AM CDT 8:51 PM CDT
Moon 9:57 PM CDT (9/18) 11:03 AM CDT (9/18)
Length of Visible Light 13h 13m
Length of Day
12h 20m
Waning Gibbous, 82% of the Moon is Illuminated
Sep 18
Waning Gibbous
Sep 21
Last Quarter
Sep 28
New
Oct 5
First Quarter
Oct 13
Full

Hourly Weather History & Observations

Time (CDT) Temp. Heat Index Dew Point Humidity Pressure Visibility Wind Dir Wind Speed Gust Speed Precip Events Conditions
12:35 AM 73.4 °F - 64.4 °F 73% 29.98 in 10.0 mi Calm Calm - N/A   Clear
12:55 AM 71.6 °F - 66.2 °F 83% 29.98 in 10.0 mi Calm Calm - N/A   Clear
1:15 AM 69.8 °F - 68.0 °F 94% 29.98 in 10.0 mi Calm Calm - N/A   Clear
1:35 AM 69.8 °F - 66.2 °F 88% 29.97 in 10.0 mi Calm Calm - N/A   Clear
1:55 AM 71.6 °F - 66.2 °F 83% 29.98 in 10.0 mi Calm Calm - N/A   Clear
2:15 AM 69.8 °F - 66.2 °F 88% 29.98 in 10.0 mi Calm Calm - N/A   Clear
2:35 AM 69.8 °F - 66.2 °F 88% 29.99 in 10.0 mi Calm Calm - N/A   Clear
2:55 AM 68.0 °F - 66.2 °F 94% 29.98 in 10.0 mi Calm Calm - N/A   Clear
3:15 AM 68.0 °F - 66.2 °F 94% 29.98 in 10.0 mi Calm Calm - N/A   Clear
3:35 AM 68.0 °F - 66.2 °F 94% 29.98 in 10.0 mi Calm Calm - N/A   Clear
3:55 AM 68.0 °F - 64.4 °F 88% 29.98 in 10.0 mi Calm Calm - N/A   Clear
4:15 AM 68.0 °F - 64.4 °F 88% 29.98 in 10.0 mi Calm Calm - N/A   Clear
4:55 AM 68.0 °F - 66.2 °F 94% 29.98 in 10.0 mi Calm Calm - N/A   Clear
5:15 AM 68.0 °F - 66.2 °F 94% 29.98 in 10.0 mi Calm Calm - N/A   Clear
5:35 AM 68.0 °F - 66.2 °F 94% 29.97 in 10.0 mi Calm Calm - N/A   Clear
5:55 AM 69.8 °F - 68.0 °F 94% 29.97 in 10.0 mi Calm Calm - N/A   Unknown
6:15 AM 69.8 °F - 66.2 °F 88% 29.97 in 10.0 mi Calm Calm - N/A   Clear
6:35 AM 69.8 °F - 66.2 °F 88% 29.97 in 10.0 mi Calm Calm - N/A   Clear
6:55 AM 69.8 °F - 66.2 °F 88% 29.97 in 10.0 mi Calm Calm - N/A   Clear
7:15 AM 69.8 °F - 66.2 °F 88% 29.97 in 10.0 mi Calm Calm - N/A   Clear
7:35 AM 69.8 °F - 66.2 °F 88% 29.98 in 10.0 mi Calm Calm - N/A   Clear
7:55 AM 69.8 °F - 66.2 °F 88% 29.98 in 10.0 mi Calm Calm - N/A   Clear
8:15 AM 69.8 °F - 66.2 °F 88% 29.98 in 10.0 mi Calm Calm - N/A   Clear
8:35 AM 71.6 °F - 68.0 °F 88% 29.98 in 10.0 mi Calm Calm - N/A   Clear
8:55 AM 71.6 °F - 68.0 °F 88% 29.98 in 10.0 mi Calm Calm - N/A   Clear
9:15 AM 73.4 °F - 68.0 °F 83% 29.98 in 10.0 mi Calm Calm - N/A   Clear
9:35 AM 75.2 °F - 68.0 °F 78% 29.98 in - Calm Calm - N/A   Clear
9:55 AM 77.0 °F - 68.0 °F 74% 29.99 in - Calm Calm - N/A   Clear
10:15 AM 78.8 °F - 68.0 °F 69% 29.99 in - Calm Calm - N/A   Clear
10:35 AM 80.6 °F 83.2 °F 68.0 °F 65% 30.00 in - Calm Calm - N/A   Clear
10:55 AM 80.6 °F 83.2 °F 68.0 °F 65% 30.00 in - Calm Calm - N/A   Clear
11:15 AM 82.4 °F 85.4 °F 68.0 °F 62% 30.00 in - Calm Calm - N/A   Clear
11:55 AM 86.0 °F 89.4 °F 68.0 °F 55% 30.00 in - Calm Calm - N/A   Clear
12:15 PM 86.0 °F 89.4 °F 68.0 °F 55% 30.00 in - Calm Calm - N/A   Clear
12:55 PM 87.8 °F 91.4 °F 68.0 °F 52% 30.00 in - South 6.9 mph - N/A   Clear
1:15 PM 87.8 °F 90.4 °F 66.2 °F 49% 30.00 in - SSW 9.2 mph - N/A   Clear
1:55 PM 89.6 °F 92.2 °F 66.2 °F 46% 30.00 in - Calm Calm - N/A   Clear
2:35 PM 89.6 °F 93.4 °F 68.0 °F 49% 29.99 in - Calm Calm - N/A   Scattered Clouds
3:35 PM 89.6 °F 91.1 °F 64.4 °F 43% 29.98 in - SSW 3.5 mph - N/A   Scattered Clouds
3:55 PM 91.4 °F 94.0 °F 66.2 °F 43% 29.97 in - South 3.5 mph - N/A   Scattered Clouds
4:15 PM 89.6 °F 91.1 °F 64.4 °F 43% 29.97 in - Calm Calm - N/A   Scattered Clouds
4:35 PM 89.6 °F 91.1 °F 64.4 °F 43% 29.97 in - South 9.2 mph - N/A   Clear
4:55 PM 89.6 °F 92.2 °F 66.2 °F 46% 29.96 in - Calm Calm - N/A   Clear
5:15 PM 89.6 °F 91.1 °F 64.4 °F 43% 29.96 in - Calm Calm - N/A   Clear
5:35 PM 89.6 °F 92.2 °F 66.2 °F 46% 29.95 in - South 8.1 mph - N/A   Clear
5:55 PM 89.6 °F 92.2 °F 66.2 °F 46% 29.95 in 10.0 mi South 3.5 mph - N/A   Clear
6:15 PM 89.6 °F 92.2 °F 66.2 °F 46% 29.95 in 10.0 mi Calm Calm - N/A   Clear
6:35 PM 89.6 °F 92.2 °F 66.2 °F 46% 29.95 in 10.0 mi Calm Calm - N/A   Clear
6:55 PM 87.8 °F 91.4 °F 68.0 °F 52% 29.95 in 10.0 mi Calm Calm - N/A   Clear
7:35 PM 86.0 °F 89.4 °F 68.0 °F 55% 29.95 in 10.0 mi Calm Calm - N/A   Clear
7:55 PM 82.4 °F 86.3 °F 69.8 °F 66% 29.96 in 7.0 mi Calm Calm - N/A   Clear
8:15 PM 80.6 °F 83.9 °F 69.8 °F 70% 29.96 in 10.0 mi Calm Calm - N/A   Clear
8:35 PM 78.8 °F - 69.8 °F 74% 29.97 in 10.0 mi Calm Calm - N/A   Clear
8:55 PM 78.8 °F - 69.8 °F 74% 29.97 in 10.0 mi Calm Calm - N/A   Clear
9:15 PM 78.8 °F - 69.8 °F 74% 29.98 in 10.0 mi Calm Calm - N/A   Clear
9:35 PM 77.0 °F - 69.8 °F 78% 29.99 in 10.0 mi Calm Calm - N/A   Clear
9:55 PM 77.0 °F - 69.8 °F 78% 29.99 in 10.0 mi Calm Calm - N/A   Clear
10:15 PM 77.0 °F - 69.8 °F 78% 29.99 in 10.0 mi Calm Calm - N/A   Clear
10:35 PM 77.0 °F - 69.8 °F 78% 29.99 in 10.0 mi Calm Calm - N/A   Clear
10:55 PM 73.4 °F - 69.8 °F 88% 29.99 in 10.0 mi Calm Calm - N/A   Clear
11:15 PM 73.4 °F - 69.8 °F 88% 29.99 in 10.0 mi Calm Calm - N/A   Clear
11:35 PM 73.4 °F - 69.8 °F 88% 29.99 in 10.0 mi Calm Calm - N/A   Clear
11:55 PM 71.6 °F - 69.8 °F 94% 29.99 in 10.0 mi Calm Calm - N/A   Clear